Location: Contre
(49.7477°N, 2.0963°E)
Time: 16:27:36
(UTC+00:00)

Cosmos 1745 Rocket - Visible Passes

Search period start: 30 September 2023 00:00
Search period end: 10 October 2023 00:00
Orbit: 953 x 997 km, 83.0° (Epoch: 29 September)

Date Brightness Start Highest point End Pass type
(mag) Time Alt. Az. Time Alt. Az. Time Alt. Az.
30 Sep 5.8 03:35:46 10° SE 03:41:12 32° E 03:46:42 10° NNE visible
01 Oct 4.9 04:00:06 10° SSE 04:06:12 52° E 04:12:20 10° NNE visible
02 Oct 6.7 02:43:14 10° ESE 02:46:58 16° ENE 02:50:42 10° NE visible
02 Oct 4.1 04:25:01 10° S 04:31:20 85° E 04:37:45 10° N visible
03 Oct 6.0 03:06:33 10° SE 03:11:44 28° E 03:16:57 10° NNE visible
03 Oct 4.1 04:50:26 10° SSW 04:56:40 60° WNW 05:03:00 10° N visible
04 Oct 5.1 03:30:43 10° SSE 03:36:41 45° E 03:42:41 10° NNE visible
04 Oct 4.6 05:16:22 10° SW 05:22:10 37° WNW 05:28:03 10° N visible
05 Oct 6.7 02:14:26 10° ESE 02:17:32 14° ENE 02:20:38 10° NE visible
05 Oct 4.2 03:55:28 10° S 04:01:47 75° E 04:08:09 10° NNE visible
06 Oct 6.1 02:37:23 10° SE 02:42:16 24° E 02:47:10 10° NNE visible
06 Oct 4.0 04:20:45 10° SSW 04:27:03 69° WNW 04:33:26 10° N visible
07 Oct 5.3 03:01:22 10° SSE 03:07:10 39° E 03:13:00 10° NNE visible
07 Oct 4.4 04:46:32 10° SW 04:52:30 42° WNW 04:58:32 10° N visible
08 Oct 6.7 01:45:55 10° E 01:48:07 12° ENE 01:50:21 10° NE visible
08 Oct 4.4 03:25:58 10° S 03:32:13 65° E 03:38:32 10° NNE visible
08 Oct 5.0 05:12:53 10° WSW 05:18:08 27° WNW 05:23:26 10° N visible
09 Oct 6.2 02:08:18 10° SE 02:12:49 21° E 02:17:20 10° NE visible
09 Oct 3.9 03:52:11 16° SSW 03:57:27 78° W 04:03:51 10° N visible
